Back to catalog

S5 DEB

AliveGEO
NORAD 44066·DEBRIS·🇺🇸 United States

Launched Feb 22, 2019 from Cape Canaveral Space Force Station

Loading…

TLE

FreshSource: Space-Track

Epoch: Sep 12, 2026, 03:41 UTC

1 44066U 19009E   26255.15353262 -.00000061  00000-0  00000-0 0  9994
2 44066   6.8023  69.8778 0009259 155.8662 204.3979  0.98986365 27225

Track S5 DEB in real time with AllMySat

Download on the App Store